Location: Heidgraben
(53.7081°N, 9.6576°E)
Time: 10:50:27
(UTC+00:00)

Nadezhda 3 Rocket - Pass Details

Date: 05 July 2020
Orbit: 957 x 999 km, 82.9° (Epoch: 06 August)

Event Time Altitude Azimuth Distance (km) Brightness Sun altitude
Rises 21:14:25 0° 350° (N) 3,737 8.6 -8.5°
Reaches altitude 10° 21:17:02 10° 355° (N) 2,783 7.6 -8.7°
Maximum altitude 21:23:19 57° 73° (ENE) 1,171 4.4 -9.1°
Enters shadow 21:29:10 12° 151° (SSE) 2,618 5.6 -9.5°
